When you browse on this site, cookies collect data to enhance your experience and personalize the content and advertising you see.
Visit our Privacy Policy to learn more. By continuing to use the site, you agree to this use of cookies and data.

Meteo orario Maracay

Oggi, 14 Agosto, Venerdi

Tempo Temperatura Precipitazioni Vento Pressione Umidità
00:00 +24°C° 0 mm 1 m/s 710 mm Hg 92%
01:00 +24°C° 0 mm 1 m/s 710 mm Hg 92%
02:00 +23°C° 0 mm 1 m/s 709 mm Hg 92%
03:00 +23°C° 0 mm 1 m/s 709 mm Hg 91%
04:00 +23°C° 0 mm 1 m/s 708 mm Hg 91%
05:00 +24°C° 0 mm 1 m/s 709 mm Hg 89%
06:00 +24°C° 0 mm 1 m/s 710 mm Hg 87%
07:00 +25°C° 0 mm 1 m/s 710 mm Hg 83%
08:00 +27°C° 0 mm 1 m/s 711 mm Hg 75%
09:00 +29°C° 0 mm 1 m/s 711 mm Hg 67%
10:00 +30°C° 0 mm 1 m/s 711 mm Hg 59%
11:00 +31°C° 0 mm 1 m/s 710 mm Hg 58%
12:00 +31°C° 0 mm 1 m/s 710 mm Hg 57%
13:00 +32°C° 0 mm 1 m/s 710 mm Hg 56%
14:00 +31°C° 0.1 mm 2 m/s 709 mm Hg 61%
15:00 +30°C° 0.1 mm 2 m/s 709 mm Hg 66%
16:00 +30°C° 0.1 mm 2 m/s 708 mm Hg 70%
17:00 +28°C° 0.1 mm 2 m/s 708 mm Hg 77%
18:00 +26°C° 0.1 mm 2 m/s 709 mm Hg 83%
19:00 +25°C° 0.1 mm 2 m/s 709 mm Hg 89%
20:00 +25°C° 0 mm 1 m/s 709 mm Hg 90%
21:00 +24°C° 0 mm 1 m/s 710 mm Hg 91%
22:00 +24°C° 0 mm 1 m/s 710 mm Hg 92%
23:00 +24°C° 0 mm 1 m/s 710 mm Hg 92%

Domani, 15 Agosto, Sabato

Tempo Temperatura Precipitazioni Vento Pressione Umidità
00:00 +24°C° 0 mm 1 m/s 709 mm Hg 92%
01:00 +23°C° 0 mm 1 m/s 709 mm Hg 92%
02:00 +23°C° 0 mm 1 m/s 709 mm Hg 91%
03:00 +23°C° 0 mm 1 m/s 709 mm Hg 90%
04:00 +23°C° 0 mm 1 m/s 709 mm Hg 89%
05:00 +24°C° 0 mm 1 m/s 709 mm Hg 87%
06:00 +25°C° 0 mm 1 m/s 709 mm Hg 84%
07:00 +23°C° 0 mm 0 m/s 710 mm Hg 81%
08:00 +27°C° 0 mm 1 m/s 710 mm Hg 76%
09:00 +29°C° 0 mm 1 m/s 710 mm Hg 70%
10:00 +30°C° 0 mm 1 m/s 711 mm Hg 64%
11:00 +30°C° 0 mm 2 m/s 710 mm Hg 63%
12:00 +31°C° 0 mm 2 m/s 710 mm Hg 63%
13:00 +31°C° 0 mm 2 m/s 709 mm Hg 62%
14:00 +31°C° 0.2 mm 2 m/s 709 mm Hg 66%
15:00 +30°C° 0.2 mm 2 m/s 708 mm Hg 69%
16:00 +30°C° 0.2 mm 2 m/s 708 mm Hg 73%
17:00 +29°C° 0.2 mm 2 m/s 708 mm Hg 78%
18:00 +27°C° 0.2 mm 1 m/s 708 mm Hg 84%
19:00 +26°C° 0.2 mm 1 m/s 709 mm Hg 89%
20:00 +26°C° 0.1 mm 1 m/s 709 mm Hg 89%
21:00 +25°C° 0.1 mm 1 m/s 710 mm Hg 89%
22:00 +25°C° 0.1 mm 1 m/s 710 mm Hg 90%
23:00 +25°C° 0.2 mm 1 m/s 710 mm Hg 89%

Dopodomani, 16 Agosto, Domenica

Tempo Temperatura Precipitazioni Vento Pressione Umidità
00:00 +24°C° 0.2 mm 1 m/s 710 mm Hg 89%
01:00 +24°C° 0.2 mm 1 m/s 709 mm Hg 89%
02:00 +24°C° 0 mm 1 m/s 709 mm Hg 88%
03:00 +24°C° 0 mm 1 m/s 709 mm Hg 88%
04:00 +24°C° 0 mm 1 m/s 709 mm Hg 87%
05:00 +23°C° 0 mm 0 m/s 709 mm Hg 85%
06:00 +23°C° 0 mm 0 m/s 710 mm Hg 83%
07:00 +24°C° 0 mm 0 m/s 710 mm Hg 81%
08:00 +28°C° 0 mm 1 m/s 711 mm Hg 75%
09:00 +29°C° 0 mm 1 m/s 711 mm Hg 69%
10:00 +31°C° 0 mm 2 m/s 711 mm Hg 63%
11:00 +31°C° 0.6 mm 2 m/s 711 mm Hg 65%
12:00 +31°C° 0.6 mm 2 m/s 710 mm Hg 67%
13:00 +30°C° 0.6 mm 2 m/s 710 mm Hg 69%
14:00 +30°C° 0.5 mm 2 m/s 709 mm Hg 70%
15:00 +30°C° 0.5 mm 2 m/s 709 mm Hg 70%
16:00 +30°C° 0.5 mm 2 m/s 708 mm Hg 70%
17:00 +29°C° 0.1 mm 1 m/s 709 mm Hg 75%
18:00 +27°C° 0.1 mm 1 m/s 709 mm Hg 81%
19:00 +26°C° 0.1 mm 1 m/s 709 mm Hg 86%
20:00 +26°C° 0 mm 1 m/s 710 mm Hg 86%
21:00 +25°C° 0 mm 1 m/s 710 mm Hg 87%
22:00 +25°C° 0 mm 1 m/s 710 mm Hg 87%
23:00 +24°C° 0 mm 1 m/s 710 mm Hg 88%

17 Agosto, Lunedi

Tempo Temperatura Precipitazioni Vento Pressione Umidità
00:00 +24°C° 0 mm 1 m/s 710 mm Hg 89%
01:00 +24°C° 0 mm 1 m/s 709 mm Hg 90%
02:00 +24°C° 0 mm 1 m/s 709 mm Hg 90%
03:00 +24°C° 0 mm 1 m/s 709 mm Hg 90%
04:00 +23°C° 0 mm 1 m/s 709 mm Hg 90%
05:00 +22°C° 0 mm 0 m/s 709 mm Hg 88%
06:00 +23°C° 0 mm 0 m/s 710 mm Hg 86%
07:00 +24°C° 0 mm 0 m/s 710 mm Hg 84%
08:00 +27°C° 0 mm 1 m/s 711 mm Hg 77%
09:00 +29°C° 0 mm 1 m/s 711 mm Hg 71%
10:00 +30°C° 0 mm 1 m/s 711 mm Hg 64%
11:00 +31°C° 0.2 mm 1 m/s 711 mm Hg 63%
12:00 +31°C° 0.2 mm 2 m/s 710 mm Hg 61%
13:00 +31°C° 0.2 mm 2 m/s 710 mm Hg 59%
14:00 +31°C° 0.5 mm 1 m/s 709 mm Hg 65%
15:00 +30°C° 0.5 mm 1 m/s 709 mm Hg 71%
16:00 +29°C° 0.5 mm 1 m/s 708 mm Hg 76%
17:00 +28°C° 0.5 mm 1 m/s 709 mm Hg 80%
18:00 +26°C° 0.5 mm 1 m/s 709 mm Hg 84%
19:00 +25°C° 0.5 mm 1 m/s 709 mm Hg 88%
20:00 +25°C° 0.2 mm 1 m/s 710 mm Hg 89%
21:00 +24°C° 0.2 mm 1 m/s 710 mm Hg 90%
22:00 +24°C° 0.2 mm 1 m/s 710 mm Hg 90%
23:00 +24°C° 0 mm 1 m/s 710 mm Hg 90%

18 Agosto, Martedi

Tempo Temperatura Precipitazioni Vento Pressione Umidità
00:00 +24°C° 0 mm 1 m/s 709 mm Hg 90%
01:00 +22°C° 0 mm 0 m/s 709 mm Hg 90%
02:00 +22°C° 0 mm 0 m/s 709 mm Hg 91%
03:00 +21°C° 0 mm 0 m/s 708 mm Hg 91%
04:00 +21°C° 0 mm 0 m/s 708 mm Hg 91%
05:00 +22°C° 0 mm 0 m/s 709 mm Hg 90%
06:00 +23°C° 0 mm 0 m/s 709 mm Hg 89%
07:00 +23°C° 0 mm 0 m/s 710 mm Hg 88%
08:00 +25°C° 0.2 mm 0 m/s 710 mm Hg 82%
09:00 +28°C° 0.2 mm 1 m/s 711 mm Hg 76%
10:00 +30°C° 0.2 mm 1 m/s 711 mm Hg 70%
11:00 +30°C° 1.1 mm 1 m/s 710 mm Hg 72%
12:00 +30°C° 1.1 mm 1 m/s 710 mm Hg 73%
13:00 +30°C° 1.1 mm 1 m/s 709 mm Hg 75%
14:00 +29°C° 2.3 mm 1 m/s 709 mm Hg 78%
15:00 +28°C° 2.3 mm 1 m/s 708 mm Hg 82%
16:00 +27°C° 2.3 mm 1 m/s 708 mm Hg 86%
17:00 +27°C° 1.5 mm 1 m/s 708 mm Hg 87%
18:00 +26°C° 1.5 mm 1 m/s 709 mm Hg 88%
19:00 +25°C° 1.5 mm 1 m/s 709 mm Hg 88%
20:00 +25°C° 0.1 mm 1 m/s 709 mm Hg 89%
21:00 +25°C° 0.1 mm 1 m/s 710 mm Hg 89%
22:00 +24°C° 0.1 mm 1 m/s 710 mm Hg 90%
23:00 +22°C° 0 mm 0 m/s 710 mm Hg 90%

19 Agosto, Mercoledi

Tempo Temperatura Precipitazioni Vento Pressione Umidità
00:00 +22°C° 0 mm 0 m/s 709 mm Hg 90%
01:00 +22°C° 0 mm 0 m/s 709 mm Hg 90%
02:00 +22°C° 0 mm 0 m/s 709 mm Hg 90%
03:00 +22°C° 0 mm 0 m/s 709 mm Hg 90%
04:00 +22°C° 0 mm 0 m/s 709 mm Hg 90%
05:00 +22°C° 0 mm 0 m/s 709 mm Hg 89%
06:00 +23°C° 0 mm 0 m/s 710 mm Hg 87%
07:00 +26°C° 0 mm 1 m/s 710 mm Hg 85%
08:00 +27°C° 0 mm 1 m/s 711 mm Hg 78%
09:00 +29°C° 0 mm 2 m/s 711 mm Hg 71%
10:00 +30°C° 0 mm 2 m/s 711 mm Hg 64%
11:00 +30°C° 0.5 mm 2 m/s 710 mm Hg 65%
12:00 +31°C° 0.5 mm 2 m/s 710 mm Hg 66%
13:00 +31°C° 0.5 mm 2 m/s 709 mm Hg 67%
14:00 +30°C° 1.5 mm 2 m/s 709 mm Hg 72%
15:00 +29°C° 1.5 mm 2 m/s 708 mm Hg 76%
16:00 +29°C° 1.5 mm 1 m/s 708 mm Hg 80%
17:00 +28°C° 0.4 mm 1 m/s 708 mm Hg 82%
18:00 +27°C° 0.4 mm 1 m/s 709 mm Hg 84%
19:00 +26°C° 0.4 mm 1 m/s 709 mm Hg 86%
20:00 +25°C° 0.1 mm 1 m/s 709 mm Hg 86%
21:00 +25°C° 0.1 mm 1 m/s 710 mm Hg 86%
22:00 +25°C° 0.1 mm 1 m/s 710 mm Hg 85%
23:00 +25°C° 0 mm 1 m/s 710 mm Hg 85%
Mostrare altro